Henderson, KY

8:32 PM CDT on September 22, 2019 (GMT -0500)
Henderson City-County

Weather History for KEHR - May, 2019

Change the Weather History Date:

Thursday, May 9, 2019

  Actual Average Record
Temperature  
Mean Temperature 68 °F -  
Max Temperature 75 °F 75 °F 90 °F (1934)
Min Temperature 61 °F 52 °F 33 °F (1947)
Cooling Degree Days 4    
Growing Degree Days 18 (Base 50)    
Moisture  
Dew Point 62 °F    
Average Humidity 78    
Maximum Humidity 94    
Minimum Humidity 60    
Precipitation  
Precipitation 0.04 in - - ()
Sea Level Pressure  
Sea Level Pressure 29.88 in    
Wind  
Wind Speed 13 mph (SW)    
Max Wind Speed 23 mph    
Max Gust Speed 30 mph    
Visibility 10 miles    
Events Rain    
Averages and records for this station are not official NWS values.
T = Trace of Precipitation, MM = Missing Value Source: NWS Daily Summary

Daily Weather History Graph

Daily Weather History Graph

Search for Another Location

Airport or City:

Astronomy

May. 09, 2019 Rise Set
Actual Time 5:46 AM CDT 7:48 PM CDT
Civil Twilight 5:17 AM CDT 8:17 PM CDT
Nautical Twilight 4:42 AM CDT 8:52 PM CDT
Astronomical Twilight 4:04 AM CDT 9:30 PM CDT
Moon 9:43 AM CDT (5/9) No Moon Set
Length of Visible Light 14h 59m
Length of Day
14h 01m
Waxing Crescent, 25% of the Moon is Illuminated
May 9
Waxing Crescent
May 11
First Quarter
May 18
Full
May 26
Last Quarter
Jun 3
New

Hourly Weather History & Observations

Time (CDT) Temp. Dew Point Humidity Pressure Visibility Wind Dir Wind Speed Gust Speed Precip Events Conditions
12:56 AM 75.9 °F 61.0 °F 60% 29.80 in 10.0 mi South 15.0 mph - N/A   Overcast
1:56 AM 75.9 °F 62.1 °F 62% 29.78 in 10.0 mi South 12.7 mph - N/A   Mostly Cloudy
2:56 AM 75.0 °F 63.0 °F 66% 29.76 in 10.0 mi South 11.5 mph - 0.00 in Rain Light Rain
3:56 AM 73.9 °F 63.0 °F 68% 29.77 in 10.0 mi South 10.4 mph - N/A   Scattered Clouds
5:38 AM 71.6 °F 62.6 °F 73% 29.79 in 10.0 mi SSW 23.0 mph 27.6 mph N/A   Overcast
5:56 AM 72.0 °F 63.0 °F 73% 29.82 in 10.0 mi SSW 19.6 mph 29.9 mph N/A   Overcast
6:56 AM 71.1 °F 63.0 °F 75% 29.84 in 10.0 mi SSW 18.4 mph - N/A   Overcast
7:56 AM 71.1 °F 63.0 °F 75% 29.86 in 10.0 mi SSW 19.6 mph 26.5 mph N/A   Overcast
8:56 AM 71.1 °F 63.0 °F 75% 29.87 in 10.0 mi SSW 12.7 mph - N/A   Mostly Cloudy
9:09 AM 71.6 °F 62.6 °F 73% 29.86 in 10.0 mi SSW 13.8 mph - N/A   Mostly Cloudy
9:56 AM 69.1 °F 64.0 °F 84% 29.89 in 10.0 mi SSW 12.7 mph - 0.00 in Rain Light Rain
10:11 AM 69.8 °F 64.4 °F 83% 29.87 in 10.0 mi SSW 11.5 mph - 0.00 in   Mostly Cloudy
10:31 AM 69.8 °F 64.4 °F 83% 29.87 in 10.0 mi SSW 13.8 mph - 0.00 in   Mostly Cloudy
10:42 AM 69.8 °F 62.6 °F 78% 29.87 in 10.0 mi SSW 16.1 mph - 0.00 in Rain Light Rain
11:22 AM 68.0 °F 62.6 °F 83% 29.89 in 10.0 mi SSW 11.5 mph - 0.01 in Rain Light Rain
11:56 AM 66.9 °F 63.0 °F 87% 29.91 in 10.0 mi SW 12.7 mph 17.3 mph 0.03 in Rain Light Rain
12:56 PM 68.0 °F 63.0 °F 84% 29.90 in 10.0 mi SSW 10.4 mph - 0.00 in   Clear
1:56 PM 71.1 °F 62.1 °F 73% 29.88 in 10.0 mi SSW 11.5 mph 16.1 mph N/A   Clear
2:56 PM 72.0 °F 63.0 °F 73% 29.90 in 10.0 mi South 10.4 mph - N/A   Partly Cloudy
3:56 PM 73.0 °F 64.0 °F 73% 29.88 in 10.0 mi SSW 11.5 mph - N/A   Clear
4:56 PM 73.0 °F 62.1 °F 68% 29.88 in 10.0 mi SSW 11.5 mph - N/A   Scattered Clouds
5:56 PM 73.0 °F 62.1 °F 68% 29.88 in 10.0 mi SSW 11.5 mph - N/A   Mostly Cloudy
6:56 PM 71.1 °F 62.1 °F 73% 29.89 in 10.0 mi SSW 11.5 mph - N/A   Partly Cloudy
7:56 PM 69.1 °F 63.0 °F 81% 29.91 in 10.0 mi WSW 8.1 mph - N/A   Mostly Cloudy
8:56 PM 68.0 °F 62.1 °F 81% 29.94 in 10.0 mi SW 8.1 mph - N/A   Mostly Cloudy
9:16 PM 66.2 °F 62.6 °F 88% 29.93 in 10.0 mi WNW 9.2 mph - 0.00 in Rain Light Rain
9:26 PM 66.2 °F 62.6 °F 88% 29.94 in 10.0 mi NW 12.7 mph - 0.01 in Rain Light Rain
9:56 PM 64.0 °F 61.0 °F 90% 29.98 in 10.0 mi NW 8.1 mph - 0.01 in   Overcast
10:12 PM 62.6 °F 60.8 °F 94% 29.96 in 10.0 mi NNW 5.8 mph - N/A   Overcast
10:56 PM 62.1 °F 59.0 °F 90% 29.99 in 10.0 mi NNW 8.1 mph - N/A   Overcast
11:13 PM 62.6 °F 59.0 °F 88% 29.97 in 10.0 mi NNW 6.9 mph - N/A   Overcast
11:56 PM 61.0 °F 55.9 °F 83% 30.01 in 10.0 mi NW 8.1 mph - N/A   Overcast